Regional Weather Roundup
Issued by NWS

Home | Current Version | Previous Version | Graphics & Text | Print | Product List | Glossary On
Versions: 1 2 3 4 5 6 7 8 9 10 11 12 13 14 15 16 17 18 19 20 21 22 23 24 25 26 27 28 29 30 31 32 33 34 35 36 37 38 39 40 41 42 43 44 45 46 47 48 49 50
000
ASUS43 KFSD 120502
RWRSD

WEATHER ROUNDUP FOR SOUTH DAKOTA
NATIONAL WEATHER SERVICE SIOUX FALLS SD
1100 PM CST THU FEB 11 2016

NOTE: "FAIR" INDICATES FEW OR NO CLOUDS BELOW 12,000 FEET WITH NO
SIGNIFICANT WEATHER AND/OR OBSTRUCTIONS TO VISIBILITY.


SDZ001>005-009-010-012>017-120600-
NORTHWEST AND NORTH CENTRAL SOUTH DAKOTA

CITY           SKY/WX    TMP DP  RH WIND       PRES   REMARKS
BUFFALO          N/A     30  24  78 N9        30.16R WCI  22
FAITH            N/A     24  20  84 N12       30.24R WCI  13
MOBRIDGE       CLOUDY    21  16  81 N5        30.26R WCI  15
$$

SDZ012>016-024>037-041>051-057-063-072>074-120600-
SOUTHWEST AND SOUTH CENTRAL SOUTH DAKOTA

CITY           SKY/WX    TMP DP  RH WIND       PRES   REMARKS
RAPID CTY ARPT CLOUDY    31  28  89 N6        30.24R WCI  25
PIERRE         CLOUDY    27  24  89 NW6       30.24R WCI  20
CUSTER         CLOUDY    33  21  61 W10       30.18S WCI  25
ELLSWORTH AFB  CLOUDY    31  30  94 NE5       30.23  WCI  27
PHILIP         CLOUDY    32  28  85 W5        30.25R WCI  27
PINE RIDGE     CLEAR     32  28  85 N7        30.23R WCI  26
WINNER         FAIR      27  23  85 CALM      30.22S
$$

SDZ004>011-016>023-039-040-120600-
NORTHEAST SOUTH DAKOTA

CITY           SKY/WX    TMP DP  RH WIND       PRES   REMARKS
ABERDEEN       PTCLDY    13   9  84 N7        30.28S WCI   3
WATERTOWN      CLOUDY    17  11  77 N15       30.22R WCI   2
BROOKINGS      CLOUDY    15  13  91 NW5       30.21R WCI   8
SISSETON         N/A     11   8  88 N10       30.27R WCI  -3
$$

SDZ017-020-022-023-036>040-048>070-120600-
SOUTHEAST SOUTH DAKOTA

CITY           SKY/WX    TMP DP  RH WIND       PRES   REMARKS
SIOUX FALLS    LGT SNOW  10   7  87 NW6       30.23R WCI   0
HURON          CLOUDY    20  15  81 N13       30.27R WCI   7
MITCHELL       CLOUDY    20  17  88 W5        30.27R WCI  13
YANKTON        CLOUDY    18  12  79 NW5       30.25R WCI  11
$$

ABBREVIATIONS USED IN REMARKS
   TC - TEMPERATURE IN CELSIUS
  WCI - WIND CHILL INDEX
   HX - HEAT INDEX
  VSB - VISIBILITY




USA.gov is the U.S. government's official web portal to all federal, state and local government web resources and services.